STARLINK-1355, 45563

Orbit data source: Space-Track

STARLINK-1355, 45563 is a payload satellite owned by SpaceX/Seattle (US) in LEO that was launched on Wed, 22 Apr 2020 UTC via an FALCON 9 launch vehicle from the Air Force Eastern Test Range (AFETR). Payload-class satellites include a variety of spacecraft equipped with specific instruments for various scientific and technological missions. These include communications satellites like Starlink; space stations such as the ISS; scientific satellites like the Hubble; Earth observation satellites from companies like Planet Labs, Umbra, and HawkEye 360; GPS; miniature CubeSats for education and research; and military/defense satellites.

Not visible in the next 10 days
Identifier
45563, 2020-025AJ
Orbit
LEO
Last TLE update
13 hours ago
Origin
Manufacturer
SpaceX/Seattle
Mission
Partially operational Commercial Communications
Bus & Motor
STARLINK, Unknown motor
Mass
260 kg wet, ~248 kg dry
Launch date (UTC)
2020-04-22 (5 years ago)
Launch vehicle
FALCON 9
Launch site
Air Force Eastern Test Range (AFETR)
Object type
Payload
Rocket body
Debris
Shape & HBR
Box + 1 Pan, 8.86 m
Radar Cross Section
13.562 m², Large (>1 m²)

Expand to show TLE details & history

TLE from 13 hours ago
0 STARLINK-1355
1 45563U 20025AJ  25181.86389497  .00070376  00000-0  43204-3 0  9992
2 45563  53.0439  66.4477 0005039 102.8133 257.3450 15.76627643288403
Epoch: 2025-06-30T20:44Z
TLE epoch observation values (Epoch: 2025-06-30T20:44:00.525Z)
Latitude
0.00001°
Longitude
-163.72207°
Altitude
341.652 km
Speed
7.705 km/s
True Right ascension
04h 25m 47s
True Declination
0° 00' 00"
Sunlit
Object was in daylight at epoch
Visualization orbit readout
Latitude
-52.78341°
Longitude
93.58851°
Altitude
361.241 km
Speed
7.69 km/s
Apparent Right ascension
10h 01m 49s
Apparent Declination
-85° 01' 42"
Sunlit
Object is in full shadow
Visualization observer readout
Local Sidereal Time
21:39:30
Azimuth
180.681° SSW
Elevation
-44.862°
Doppler factor
1
Orbital elements
Apogee altitude
343.669 km
Perigee altitude
336.899 km
Semi-major axis
6,718.421 km
Eccentricity
0.0005
Inclination
53.0439°
RAAN
66.4477°
Arg. of periapsis
102.8133°
True anomaly
Unknown
Mean anomaly
257.345°
Eccentric anomaly
Unknown
Mean motion
3.94133 °/min
Orbital period
91.34 mins
BSTAR
0.00043204
Loading maneuver chart data...
Loading SW <> Apogee altitude chart data...
Loading historical data...
Loading historical data...
Loading historical data...
Loading historical data...
Loading historical data...
Loading historical data...
Loading historical data...

STARLINK-1355 Visibility

Observer location: undefined°, undefined°

STARLINK-1355 is likely not visible in the next few days
Span
Click to sort rows by Start time (UTC) header in descending order
Start Az.
Max El. time (UTC)
Max El. Az.
Max El.
End time (UTC)
End Az.
|